Ketchikan, AK

4:51 PM AKDT on September 24, 2018 (GMT -0800)
Ketchikan International

Weather History for PAKT - July, 2018

Change the Weather History Date:

Tuesday, July 31, 2018

  Actual Average Record
Temperature  
Mean Temperature 68 °F -  
Max Temperature 79 °F 65 °F 83 °F (1961)
Min Temperature 57 °F 52 °F 43 °F (1972)
Cooling Degree Days 4    
Growing Degree Days 18 (Base 50)    
Moisture  
Dew Point 56 °F    
Average Humidity 64    
Maximum Humidity 90    
Minimum Humidity 44    
Precipitation  
Precipitation 0.00 in - - ()
Sea Level Pressure  
Sea Level Pressure 29.97 in    
Wind  
Wind Speed 9 mph (NNW)    
Max Wind Speed 13 mph    
Max Gust Speed -    
Visibility 10 miles    
Events      
Averages and records for this station are not official NWS values.
T = Trace of Precipitation, MM = Missing Value Source: NWS Daily Summary

Daily Weather History Graph

Daily Weather History Graph

Search for Another Location

Airport or City:

Astronomy

Jul. 31, 2018 Rise Set
Actual Time 4:52 AM AKDT 8:52 PM AKDT
Civil Twilight 4:05 AM AKDT 9:39 PM AKDT
Nautical Twilight 2:55 AM AKDT 10:48 PM AKDT
Astronomical Twilight 1:25 AM AKDT 12:20 AM AKDT
Moon 10:34 PM AKDT (7/31) 8:59 AM AKDT (7/31)
Length of Visible Light 17h 34m
Length of Day
16h 00m
Waning Gibbous, 86% of the Moon is Illuminated
Jul 31
Waning Gibbous
Aug 4
Last Quarter
Aug 11
New
Aug 17
First Quarter
Aug 26
Full

Hourly Weather History & Observations

Time (AKDT) Temp. Dew Point Humidity Pressure Visibility Wind Dir Wind Speed Gust Speed Precip Events Conditions
12:53 AM 66.0 °F 55.9 °F 70% 29.99 in 10.0 mi WNW 9.2 mph - N/A   Clear
1:53 AM 64.9 °F 55.9 °F 73% 30.00 in 10.0 mi WNW 6.9 mph - N/A   Clear
2:53 AM 64.9 °F 55.9 °F 73% 30.00 in 10.0 mi NW 8.1 mph - N/A   Clear
3:53 AM 66.0 °F 55.0 °F 68% 30.00 in 10.0 mi NNW 9.2 mph - N/A   Clear
4:53 AM 66.9 °F 55.0 °F 66% 29.99 in 10.0 mi NNW 8.1 mph - N/A   Clear
5:53 AM 64.9 °F 55.0 °F 70% 29.99 in 10.0 mi NNW 6.9 mph - N/A   Clear
6:04 AM 64.9 °F 55.0 °F 70% 29.99 in 10.0 mi NW 6.9 mph - N/A   Clear
6:53 AM 66.2 °F 55.4 °F 68% 30.00 in 10.0 mi NW 8.1 mph - N/A   Clear
7:53 AM 69.8 °F 55.4 °F 60% 29.99 in 10.0 mi NNW 9.2 mph - N/A   Clear
7:55 AM 69.1 °F 55.9 °F 63% 29.99 in 10.0 mi NNW 9.2 mph - N/A   Clear
8:53 AM 71.6 °F 55.4 °F 57% 29.99 in 10.0 mi North 11.5 mph - N/A   Clear
9:53 AM 73.4 °F 55.4 °F 53% 29.99 in 10.0 mi NNW 8.1 mph - N/A   Clear
10:53 AM 75.2 °F 55.4 °F 50% 29.98 in 10.0 mi NNW 12.7 mph - N/A   Clear
11:53 AM 75.2 °F 55.4 °F 50% 29.98 in 10.0 mi NW 11.5 mph - N/A   Clear
12:53 PM 77.0 °F 55.4 °F 47% 29.97 in 10.0 mi NNW 12.7 mph - N/A   Clear
1:53 PM 78.8 °F 55.4 °F 44% 29.97 in 10.0 mi NNW 12.7 mph - N/A   Clear
2:53 PM 78.8 °F 55.4 °F 44% 29.96 in 10.0 mi NW 9.2 mph - N/A   Clear
3:53 PM 73.4 °F 55.4 °F 53% 29.95 in 10.0 mi ESE 12.7 mph - N/A   Clear
4:53 PM 73.9 °F 55.9 °F 53% 29.94 in 10.0 mi SE 11.5 mph - N/A   Clear
5:53 PM 73.0 °F 55.9 °F 55% 29.93 in 10.0 mi ESE 10.4 mph - N/A   Clear
6:53 PM 71.6 °F 55.4 °F 57% 29.92 in 10.0 mi ESE 9.2 mph - N/A   Clear
7:53 PM 68.0 °F 57.2 °F 68% 29.93 in 10.0 mi SE 6.9 mph - N/A   Clear
8:53 PM 62.1 °F 57.9 °F 86% 29.94 in 10.0 mi SSE 6.9 mph - N/A   Clear
9:53 PM 60.1 °F 57.0 °F 90% 29.94 in 10.0 mi South 5.8 mph - N/A   Clear
10:53 PM 59.0 °F 55.9 °F 90% 29.94 in 10.0 mi South 4.6 mph - N/A   Clear
11:53 PM 57.9 °F 55.0 °F 90% 29.95 in 10.0 mi South 4.6 mph - N/A   Clear